Visalia, CA

10:39 AM PST on November 22, 2019 (GMT -0800)
Visalia Municipal

Weather History for KVIS - October, 2019

Change the Weather History Date:

Wednesday, October 23, 2019

  Actual Average Record
Temperature  
Mean Temperature 67 °F -  
Max Temperature 82 °F 75 °F 93 °F (1929)
Min Temperature 52 °F 50 °F 37 °F (1975)
Cooling Degree Days 2    
Growing Degree Days 17 (Base 50)    
Moisture  
Dew Point 49 °F    
Average Humidity 60    
Maximum Humidity 86    
Minimum Humidity 31    
Precipitation  
Precipitation 0.00 in - - ()
Sea Level Pressure  
Sea Level Pressure 30.01 in    
Wind  
Wind Speed 3 mph (SE)    
Max Wind Speed 8 mph    
Max Gust Speed -    
Visibility 10 miles    
Events      
Averages and records for this station are not official NWS values.
T = Trace of Precipitation, MM = Missing Value Source: NWS Daily Summary

Daily Weather History Graph

Daily Weather History Graph

Search for Another Location

Airport or City:

Astronomy

Oct. 23, 2019 Rise Set
Actual Time 7:11 AM PDT 6:11 PM PDT
Civil Twilight 6:45 AM PDT 6:37 PM PDT
Nautical Twilight 6:15 AM PDT 7:07 PM PDT
Astronomical Twilight 5:45 AM PDT 7:37 PM PDT
Moon 1:48 AM PDT (10/23) 3:53 PM PDT (10/23)
Length of Visible Light 11h 52m
Length of Day
10h 59m
Waning Crescent, 25% of the Moon is Illuminated
Oct 23
Waning Crescent
Oct 27
New
Nov 4
First Quarter
Nov 12
Full
Nov 19
Last Quarter

Hourly Weather History & Observations

Time (PDT) Temp. Dew Point Humidity Pressure Visibility Wind Dir Wind Speed Gust Speed Precip Events Conditions
12:56 AM 57.0 °F 50.0 °F 77% 30.08 in 10.0 mi ESE 4.6 mph - N/A   Clear
1:56 AM 55.9 °F 50.0 °F 80% 30.07 in 10.0 mi Calm Calm - N/A   Clear
2:56 AM 55.9 °F 50.0 °F 80% 30.07 in 10.0 mi ENE 3.5 mph - N/A   Clear
3:56 AM 53.1 °F 48.9 °F 86% 30.05 in 10.0 mi SE 3.5 mph - N/A   Clear
4:56 AM 52.0 °F 48.0 °F 86% 30.04 in 10.0 mi Calm Calm - N/A   Clear
5:56 AM 52.0 °F 48.0 °F 86% 30.05 in 10.0 mi Calm Calm - N/A   Clear
6:56 AM 52.0 °F 48.0 °F 86% 30.06 in 10.0 mi East 3.5 mph - N/A   Clear
7:56 AM 54.0 °F 48.9 °F 83% 30.06 in 10.0 mi ESE 3.5 mph - N/A   Clear
8:56 AM 62.1 °F 50.0 °F 65% 30.06 in 10.0 mi ESE 6.9 mph - N/A   Clear
9:56 AM 66.9 °F 51.1 °F 57% 30.06 in 9.0 mi SSE 3.5 mph - N/A   Clear
10:56 AM 73.0 °F 52.0 °F 48% 30.05 in 8.0 mi SSE 4.6 mph - N/A   Clear
11:56 AM 75.9 °F 50.0 °F 40% 30.03 in 10.0 mi SW 3.5 mph - N/A   Clear
12:56 PM 79.0 °F 51.1 °F 38% 30.00 in 8.0 mi Variable 4.6 mph - N/A   Clear
1:56 PM 81.0 °F 48.9 °F 33% 29.98 in 10.0 mi Calm Calm - N/A   Clear
2:56 PM 82.0 °F 48.9 °F 31% 29.96 in 9.0 mi WNW 8.1 mph - N/A   Clear
3:56 PM 82.9 °F 48.9 °F 31% 29.94 in 10.0 mi West 4.6 mph - N/A   Clear
4:56 PM 82.0 °F 50.0 °F 33% 29.93 in 10.0 mi WNW 6.9 mph - N/A   Clear
5:56 PM 78.1 °F 48.9 °F 36% 29.93 in 10.0 mi NW 6.9 mph - N/A   Clear
6:56 PM 73.0 °F 50.0 °F 44% 29.93 in 10.0 mi Calm Calm - N/A   Clear
7:56 PM 66.9 °F 48.9 °F 52% 29.94 in 5.0 mi Calm Calm - N/A   Haze
8:56 PM 63.0 °F 50.0 °F 63% 29.96 in 10.0 mi NNW 3.5 mph - N/A   Clear
9:56 PM 61.0 °F 48.9 °F 64% 29.96 in 10.0 mi Calm Calm - N/A   Clear
10:56 PM 59.0 °F 48.9 °F 69% 29.98 in 10.0 mi Calm Calm - N/A   Clear
11:56 PM 57.0 °F 48.9 °F 74% 29.98 in 10.0 mi Calm Calm - N/A   Clear